SCP
0 0 0 0 0 0 0 0 0 0 0 0 0 0 0 0 0 0 0 0 0 0 0 0 0 0 0 0 0 0 0 0 0 0 0 0 0 0 0 0 0 0 0
0 0 0 0 0 0 0 0 0 0 0 0 0 0 0 0 0 0 0 0 0 0 0 0 0 0 0 0 0 0 0 0 0 0 0 0 0 0 0 0 0 0 0
0 0 0 0 0 0 0 0 0 0 0 0 0 0 0 0 0 0 0 0 0 0 0 0 0 0 0 0 0 0 0 0 0 0 0 0 0 0 0 0 0 0 0
0 0 0 0 0 0 0 0 0 0 0 0 0 0 0 0 0 0 0 0 0 0 0 0 0 0 0 0 0 0 0 0 0 0 0 0 0 0 0 0 0 0 0
0 0 0 0 0 0 0 0 0 0 0 0 0 0 0 0 0 0 0 0 0 0 0 0 0 0 0 0 0 0 0 0 0 0 0 0 0 0 0 0 0 0 0
0 0 0 0 0 0 0 0 0 0 0 0 0 0 0 0 0 0 0 0 0 0 0 0 0 0 0 0 0 0 0 0 0 0 0 0 0 0 0 0 0 0 0
0 0 0 0 0 0 0 0 0 0 0 0 0 0 0 0 0 0 0 0 0 0 0 0 0 0 0 0 0 0 0 0 0 0 0 0 0 0 0 0 0 0 0
0 0 0 0 0 0 0 0 0 0 0 0 0 0 0 0 0 0 0 0 0 0 0 0 0 0 0 0 0 0 0 0 0 0 0 0 0 0 0 0 0 0 0
0 0 0 0 0 0 0 0 0 0 0 0 0 0 0 0 0 0 0 0 0 0 0 0 0 0 0 0 0 0 0 0 0 0 0 0 0 0 0 0 0 0 0
0 0 0 0 0 0 0 0 0 0 0 0 0 0 0 0 0 0 0 0 0 0 0 0 0 0 0 0 0 0 0 0 0 0 0 0 0 0 0 0 0 0 0
0 0 0 0 0 0 0 0 0 0 0 0 0 0 0 0 0 0 0 0 0 0 0 0 0 0 0 0 0 0 0 0 0 0 0 0 0 0 0 0 0 0 0
0 0 0 0 0 0 0 0 0 0 0 0 0 0 0 0 0 0 0 0 0 0 0 0 0 0 0 0 0 0 0 0 0 0 0 0 0 0 0 0 0 0 0
0 0 0 0 0 0 0 0 0 0 0 0 0 0 0 0 0 0 0 0 0 0 0 0 0 0 0 0 0 0 0 0 0 0 0 0 0 0 0 0 0 0 0
0 0 0 0 0 0 0 0 0 0 0 0 0 0 0 0 0 0 0 0 0 0 0 0 0 0 0 0 0 0 0 0 0 0 0 0 0 0 0 0 0 0 0
0 0 0 0 0 0 0 0 0 0 0 0 0 0 0 0 0 0 0 0 0 0 0 0 0 0 0 0 0 0 0 0 0 0 0 0 0 0 0 0 0 0 0
0 0 0 0 0 0 0 0 0 0 0 0 0 0 0 0 0 0 0 0 0 0 0 0 0 0 0 0 0 0 0 0 0 0 0 0 0 0 0 0 0 0 0
0 0 0 0 0 0 0 0 0 0 0 0 0 0 0 0 0 0 0 0 0 0 0 0 0 0 0 0 0 0 0 0 0 0 0 0 0 0 0 0 0 0 0
0 0 0 0 0 0 0 0 0 0 0 0 0 0 0 0 0 0 0 0 0 0 0 0 0 0 0 0 0 0 0 0 0 0 0 0 0 0 0 0 0 0 0
0 0 0 0 0 0 0 0 0 0 0 0 0 0 0 0 0 0 0 0 0 0 0 0 0 0 0 0 0 0 0 0 0 0 0 0 0 0 0 0 0 0 0
0 0 0 0 0 0 0 0 0 0 0 0 0 0 0 0 0 0 0 0 0 0 0 0 0 0 0 0 0 0 0 0 0 0 0 0 0 0 0 0 0 0 0
0 0 0 0 0 0 0 0 0 0 0 0 0 0 0 0 0 0 0 0 0 0 0 0 0 0 0 0 0 0 0 0 0 0 0 0 0 0 0 0 0 0 0
0 0 0 0 0 0 0 0 0 0 0 0 0 0 0 0 0 0 0 0 0 0 0 0 0 0 0 0 0 0 0 0 0 0 0 0 0 0 0 0 0 0 0
0 0 0 0 0 0 0 0 0 0 0 0 0 0 0 0 0 0 0 0 0 0 0 0 0 0 0 0 0 0 0 0 0 0 0 0 0 0 0 0 0 0 0
0 0 0 0 0 0 0 0 0 0 0 0 0 0 0 0 0 0 0 0 0 0 0 0 0 0 0 0 0 0 0 0 0 0 0 0 0 0 0 0 0 0 0
0 0 0 0 0 0 0 0 0 0 0 0 0 0 0 0 0 0 0 0 0 0 0 0 0 0 0 0 0 0 0 0 0 0 0 0 0 0 0 0 0 0 0
0 0 0 0 0 0 0 0 0 0 0 0 0 0 0 0 0 0 0 0 0 0 0 0 0 0 0 0 0 0 0 0 0 0 0 0 0 0 0 0 0 0 0
Wind_Speed
2 2 2 2 2 2 2 2 1 2 2 2 2 2 2 2 2 2 2 7 7 7 6 5 5 4 5 5 5 5 6 6 6 6 7 7 7 8 8 8 8 8 8
1 2 2 2 2 2 1 1 2 1 1 2 2 2 2 2 2 2 2 3 6 7 7 6 5 5 5 5 5 6 6 6 6 7 7 7 7 8 8 8 9 9 9
2 2 2 2 2 2 1 1 2 1 1 1 2 2 2 2 1 2 2 2 2 5 7 7 7 7 6 6 6 6 6 6 6 7 7 8 8 8 8 8 9 9 9
1 1 1 1 1 1 1 1 1 1 0 1 1 1 1 1 1 1 2 2 2 2 3 7 7 7 7 7 6 6 6 6 6 7 8 8 8 8 9 9 9 9 10
1 1 1 1 1 1 1 1 0 0 0 1 1 1 1 1 1 1 2 2 3 3 2 4 6 7 7 7 7 6 6 6 6 7 7 8 8 8 9 9 9 10 10
1 1 1 1 1 1 1 1 1 0 1 1 0 0 0 0 0 1 1 1 2 2 3 3 2 3 6 7 7 7 7 7 7 7 7 8 8 8 9 9 10 10 10
1 1 1 1 1 1 1 1 1 1 1 0 1 0 1 1 1 0 0 0 1 2 2 3 3 3 2 4 6 8 8 7 7 8 8 8 9 9 9 10 10 10 10
1 1 1 1 1 1 1 1 1 0 0 0 1 1 1 2 2 2 1 1 1 1 1 2 3 3 3 3 4 7 8 8 8 8 8 9 9 9 9 10 10 11 11
1 1 1 1 1 1 1 1 1 2 1 1 1 2 2 2 1 2 2 2 1 1 2 2 2 3 4 3 3 4 7 8 8 9 9 10 10 11 11 11 11 11 12
2 2 2 2 2 1 2 2 2 2 2 2 1 1 2 2 2 2 2 2 2 2 2 2 2 3 3 3 3 6 7 8 9 9 10 10 11 11 11 12 12 12 11
2 2 2 2 2 2 2 2 2 3 2 2 2 2 2 2 3 3 3 2 2 2 3 3 3 3 3 3 4 5 7 8 8 9 10 10 11 12 12 12 12 12 12
2 3 3 3 3 2 3 2 3 3 3 3 2 2 2 2 2 3 3 4 3 2 3 3 3 3 3 3 4 7 8 8 8 9 10 11 11 12 12 12 12 12 12
3 4 3 3 3 3 3 3 3 3 3 3 3 2 3 3 3 3 3 4 4 3 3 3 3 3 3 3 3 7 7 8 9 9 10 11 11 12 12 12 12 12 13
3 4 4 4 4 4 3 3 3 3 3 3 4 4 3 3 3 3 3 3 4 4 4 4 2 3 3 3 4 7 6 8 9 9 10 10 11 11 11 12 12 12 13
2 3 4 4 4 4 4 4 3 4 3 4 4 4 4 3 3 3 3 4 4 4 5 3 2 2 3 4 5 6 6 8 10 10 10 10 10 10 11 11 11 12 13
3 3 4 4 3 4 4 4 3 4 4 4 3 4 4 3 3 3 3 4 4 5 5 4 4 4 4 5 6 7 6 9 9 9 9 9 10 10 11 11 11 12 12
3 4 4 4 4 4 4 4 4 4 4 4 4 4 4 4 3 3 3 4 4 4 6 5 4 4 6 6 5 6 6 6 5 7 9 9 10 10 10 11 11 12 12
3 3 3 3 3 4 4 4 4 4 4 4 4 4 4 3 5 4 4 4 4 5 5 7 5 4 6 6 6 6 5 5 5 7 9 9 9 10 10 10 11 11 12
3 3 3 4 4 4 4 4 4 4 5 5 5 5 5 5 5 4 4 4 4 4 5 6 6 4 4 4 6 5 6 5 5 5 7 8 8 9 9 9 10 11 11
3 3 3 3 4 4 4 4 4 4 4 4 4 5 5 5 6 5 5 5 5 5 5 5 5 4 4 4 5 5 5 5 5 5 5 6 7 8 8 8 9 10 10
3 3 3 3 4 4 4 4 4 4 5 4 4 5 5 5 5 5 4 5 5 4 4 4 5 4 4 4 4 4 5 5 5 4 5 4 5 4 5 6 7 8 9
3 3 3 4 4 3 4 5 4 4 4 5 4 4 4 5 6 7 8 7 6 6 5 5 5 5 6 5 5 4 5 5 5 3 5 5 4 5 4 4 7 9 9
3 3 4 4 4 4 5 6 6 5 5 5 5 4 4 3 5 5 6 7 7 7 8 7 7 7 6 6 5 6 5 6 6 5 5 6 4 5 4 5 7 9 9
3 4 4 4 4 4 4 6 6 6 5 5 5 5 5 5 4 4 4 5 5 5 6 6 6 6 6 6 6 6 6 6 6 4 4 5 5 5 5 5 6 7 8
3 4 4 4 4 4 4 5 6 4 4 5 5 5 5 6 5 6 5 5 5 5 4 6 8 8 8 8 6 4 4 4 5 4 2 3 4 6 6 5 4 5 7
3 3 3 4 4 4 4 5 6 4 4 4 4 5 6 6 6 7 6 5 6 5 4 4 5 6 6 6 6 5 4 4 4 3 1 2 3 4 4 3 3 4 5
Wind_Direction
84 83 71 66 60 54 61 55 47 71 76 64 50 42 41 35 30 32 60 45 30 31 37 41 38 41 44 40 38 34 34 29 24 18 12 6 1 357 353 351 349 343 339
77 84 85 68 60 51 45 47 44 46 55 49 40 30 27 28 28 29 39 64 45 33 32 31 29 26 27 25 25 24 24 19 14 9 1 357 353 350 349 347 343 343 343
80 79 80 78 62 58 59 60 55 39 57 53 40 21 16 24 20 32 35 29 50 47 33 24 19 17 17 17 17 15 14 8 3 358 355 351 346 342 341 344 343 341 339
93 104 94 81 69 70 71 81 67 53 67 53 31 19 2 27 33 37 44 37 26 20 34 27 17 13 10 11 10 9 8 1 357 352 349 347 343 342 341 340 339 338 335
128 136 118 97 104 93 77 83 89 6 17 14 5 3 5 7 58 73 61 45 33 15 7 30 23 17 9 7 3 2 1 358 356 352 347 344 340 337 334 333 333 332 331
157 153 136 119 125 125 104 94 91 61 35 357 339 355 22 320 191 74 52 53 38 24 18 6 358 16 15 6 1 356 355 353 352 345 340 338 334 332 329 327 325 326 325
166 172 160 145 154 152 139 134 118 123 68 359 262 260 172 204 229 183 31 27 38 25 24 8 351 345 352 2 2 353 345 343 342 338 335 332 327 325 324 323 324 323 320
178 187 182 166 171 174 167 157 152 200 167 259 281 273 250 207 201 221 226 239 283 346 355 354 347 343 339 337 354 349 341 336 336 333 330 327 326 323 321 321 320 317 315
190 196 195 182 174 186 192 189 196 213 231 241 282 284 272 265 285 206 222 242 279 294 313 326 330 332 329 326 326 337 338 331 327 327 327 325 322 320 319 318 316 314 313
197 205 206 202 190 196 206 202 209 222 227 230 239 271 294 311 276 267 227 234 269 282 300 301 306 315 313 310 313 324 330 325 323 323 323 320 319 318 318 317 315 315 314
200 204 212 211 209 209 212 209 213 222 229 237 245 248 244 253 264 269 268 268 272 271 288 287 287 298 300 305 305 322 323 320 320 319 318 318 317 315 315 316 316 315 313
205 209 217 217 216 215 214 216 216 223 233 237 239 245 250 247 248 257 272 282 286 287 289 278 274 287 294 303 314 326 318 316 315 315 316 318 318 315 315 315 314 312 312
214 213 212 220 219 219 217 217 217 224 231 233 234 244 251 252 257 259 266 279 283 287 273 262 266 277 288 298 308 320 305 308 309 312 314 316 316 315 313 312 312 312 312
224 217 212 218 221 219 216 214 218 223 226 228 233 237 243 248 249 249 256 270 280 275 261 264 271 266 281 295 308 301 294 301 305 308 309 310 311 311 310 310 311 311 311
222 219 214 215 216 216 215 211 218 219 221 226 231 234 240 246 249 251 251 253 261 272 274 272 268 279 300 301 301 294 296 301 301 300 302 305 307 307 309 309 308 309 309
215 215 220 218 213 213 213 213 219 219 220 225 230 235 241 243 244 246 245 248 255 263 270 277 281 294 298 294 295 295 295 295 288 292 298 302 304 305 306 307 307 307 307
215 213 217 220 219 216 211 211 217 217 221 226 228 236 242 245 246 244 244 245 249 253 263 276 282 286 288 289 294 295 296 293 290 291 295 298 299 301 303 305 306 306 306
221 216 213 216 220 219 214 214 217 222 224 226 230 234 239 239 242 246 245 246 248 251 260 271 279 280 284 291 293 295 297 295 293 294 294 295 298 301 302 304 306 307 307
223 217 216 218 218 218 219 220 222 227 231 233 232 233 236 235 243 246 248 252 252 254 256 264 275 282 288 296 296 295 297 296 296 295 290 290 296 298 301 305 306 308 309
226 223 227 228 224 222 219 221 225 230 234 236 238 239 240 237 243 247 248 251 253 254 256 262 270 277 287 296 295 298 299 297 298 300 292 289 289 287 292 299 304 308 310
228 229 231 232 229 223 218 224 228 231 235 239 242 242 243 246 254 256 255 251 250 253 258 261 266 274 280 294 295 300 295 300 298 296 299 292 291 287 288 293 298 309 311
236 234 233 234 234 229 215 228 240 240 234 237 243 244 243 239 244 251 254 257 258 257 259 262 266 269 276 286 293 295 297 299 297 302 302 296 295 290 292 293 309 310 311
237 238 239 238 243 239 224 231 235 242 238 239 241 243 242 241 244 251 253 252 256 257 259 264 265 269 276 279 283 284 284 290 289 302 301 290 295 293 297 294 303 307 311
236 241 244 244 249 242 231 236 240 245 246 245 244 243 244 248 244 247 253 257 262 261 258 257 262 269 275 277 272 276 283 286 288 283 289 288 300 300 302 292 294 303 312
240 241 246 246 249 249 235 240 242 244 243 245 245 244 246 248 246 244 247 255 266 272 262 256 265 271 274 278 279 276 273 273 283 284 290 285 297 307 299 287 291 295 304
240 245 247 249 251 256 249 249 245 242 245 247 242 240 241 247 248 243 244 248 258 265 268 266 260 262 265 263 256 257 263 264 279 281 288 289 293 314 304 295 307 312 308